SCP
-0 -0 -0 -0 -0 -0 -0 -0 0 0 0 0 0 0 0 0 0 0 0 0 0 0 0 0 0 0 0
-0 -0 0 0 0 0 0 0 0 0 -0 -0 0 0 0 0 0 0 0 0 0 0 0 0 0 0 0
-0 -0 -0 -0 -0 -0 0 0 0 0 -0 -0 -0 -0 -0 0 0 0 0 0 0 0 0 0 0 0 0
-0 -0 -0 -0 -0 -0 0 0 0 0 -0 -0 -0 -0 -0 0 0 0 0 0 0 0 0 0 0 0 0
-0 -0 -0 -0 -0 -0 -0 -0 -0 -0 0 0 -0 0 0 -0 0 0 0 0 0 0 0 0 0 0 0
-0 -0 -0 -0 -0 -0 0 0 0 0 0 0 0 0 0 0 0 0 0 0 0 0 0 0 0 0 0
-0 -0 -0 -0 0 0 0 0 0 0 0 0 0 0 0 0 0 0 0 0 0 0 0 0 0 0 0
-0 -0 -0 -0 0 0 0 0 0 0 0 0 0 0 0 0 0 0 0 0 0 0 0 0 0 0 0
0 0 0 0 0 0 0 0 0 0 0 0 0 0 0 0 0 0 0 0 0 0 0 0 0 0 0
0 0 0 0 0 0 0 0 0 0 0 0 0 0 0 0 0 0 0 0 0 0 0 0 0 0 0
0 0 0 0 0 0 0 0 0 0 0 0 0 0 0 0 0 0 0 0 0 0 0 0 0 0 0
0 0 0 0 0 0 0 0 0 0 0 0 0 0 0 0 0 0 0 0 0 0 0 0 0 0 0
0 0 0 0 0 0 0 0 0 0 0 0 0 0 0 0 0 0 0 0 0 0 0 0 0 0 0
0 0 0 0 0 0 0 0 0 0 0 0 0 0 0 0 0 0 0 0 0 0 0 0 0 0 0
0 0 0 0 0 0 0 0 0 0 0 0 0 0 0 0 0 0 0 0 0 0 0 0 0 0 0
0 0 0 0 0 0 0 0 0 0 0 0 0 0 0 0 0 0 0 0 0 0 0 0 0 0 0
Wind_Speed_500mb
16 17 17 16 14 13 13 13 12 10 9 7 6 6 6 6 7 7 7 8 9 9 10 12 11 12 13
17 17 15 15 15 13 10 9 8 6 5 4 5 6 7 8 8 9 10 11 12 13 14 13 11 11 15
18 18 17 16 13 9 7 5 4 5 6 8 8 10 13 13 15 15 15 16 15 14 18 15 16 19 22
19 17 14 13 10 7 4 3 5 7 7 10 11 14 15 17 21 20 21 21 22 23 21 19 23 22 25
19 17 15 12 9 6 4 2 1 5 9 11 13 15 17 19 22 22 22 26 27 28 26 21 26 27 28
20 17 14 11 8 7 5 2 1 4 8 11 13 16 18 20 21 24 26 29 29 25 20 20 22 24 28
21 19 16 12 10 8 6 5 5 7 10 12 14 16 18 22 24 25 27 29 32 34 34 34 33 32 33
21 19 15 13 11 11 10 10 11 14 17 20 22 22 22 25 28 31 34 36 36 36 38 36 38 37 39
20 20 18 14 16 16 15 17 20 21 22 25 29 33 32 33 36 38 38 41 47 45 45 42 42 43 45
19 18 18 18 20 21 24 26 27 29 31 34 37 38 38 41 42 47 47 47 47 52 54 53 50 51 54
18 18 20 23 27 26 28 31 33 36 38 42 45 46 47 50 49 53 55 55 56 55 59 61 61 58 56
21 23 23 26 27 27 29 31 34 39 42 48 53 55 59 62 60 59 59 56 58 62 63 65 66 63 56
30 28 26 25 27 31 35 40 44 45 49 54 58 55 55 57 56 54 55 58 58 61 68 66 63 63 61
40 39 40 40 41 43 44 45 46 48 50 52 57 59 54 53 52 49 50 57 59 55 60 62 43 51 57
44 43 44 44 43 47 44 47 48 50 52 53 52 50 48 47 48 47 49 55 61 53 50 49 28 27 46
30 31 31 33 34 35 41 45 44 41 40 40 42 44 44 44 45 45 45 46 51 57 55 54 53 56 54
Wind_Direction_500mb
162 156 149 141 134 120 110 100 89 79 70 57 44 38 37 31 22 14 2 354 349 344 338 332 329 329 329
161 156 147 145 136 127 107 92 81 69 52 20 352 344 343 340 332 324 321 321 321 320 317 317 316 322 325
153 150 144 139 143 139 127 107 70 42 14 0 345 328 326 323 316 310 309 310 312 312 310 319 305 306 315
171 165 161 158 157 157 151 113 79 62 39 26 22 21 9 348 338 324 315 311 303 305 314 317 317 314 314
188 183 180 180 168 163 163 149 104 46 37 27 19 15 15 13 13 7 355 345 339 324 315 318 309 306 304
197 198 191 198 203 188 170 165 9 347 3 9 9 6 1 358 359 355 351 348 340 339 327 322 318 315 312
200 203 206 204 202 204 216 244 295 319 333 337 339 339 338 334 338 335 334 334 331 329 318 308 305 305 302
205 206 213 223 222 236 253 277 289 301 308 313 315 316 320 319 320 319 316 318 320 317 316 308 301 299 299
210 216 226 242 258 264 274 279 286 292 296 299 303 307 311 311 308 307 309 310 310 310 310 306 301 300 301
223 237 252 262 271 279 285 285 288 293 298 299 300 302 305 302 300 300 302 302 305 307 307 306 300 295 294
251 263 268 275 277 284 287 293 299 300 302 301 300 301 301 298 296 296 297 301 304 305 306 304 301 296 293
258 262 268 272 282 294 304 307 308 304 306 302 298 301 301 298 299 301 298 298 302 305 303 300 301 299 301
256 260 271 284 292 296 296 298 300 297 295 293 294 298 303 303 303 305 304 303 301 302 302 301 299 294 293
257 259 264 273 281 286 291 293 296 297 297 297 294 293 296 298 300 301 301 301 301 301 300 303 305 297 295
254 258 265 274 280 284 286 289 289 291 290 290 290 291 292 293 294 296 298 299 301 300 301 296 293 288 298
260 263 267 273 280 288 295 297 298 299 299 299 297 296 294 292 293 292 292 294 300 304 303 297 294 292 287
Wind_Speed_850mb
16 17 17 16 14 13 13 13 12 10 9 7 6 6 6 6 7 7 7 8 9 9 10 12 11 12 13
17 17 15 15 15 13 10 9 8 6 5 4 5 6 7 8 8 9 10 11 12 13 14 13 11 11 15
18 18 17 16 13 9 7 5 4 5 6 8 8 10 13 13 15 15 15 16 15 14 18 15 16 19 22
19 17 14 13 10 7 4 3 5 7 7 10 11 14 15 17 21 20 21 21 22 23 21 19 23 22 25
19 17 15 12 9 6 4 2 1 5 9 11 13 15 17 19 22 22 22 26 27 28 26 21 26 27 28
20 17 14 11 8 7 5 2 1 4 8 11 13 16 18 20 21 24 26 29 29 25 20 20 22 24 28
21 19 16 12 10 8 6 5 5 7 10 12 14 16 18 22 24 25 27 29 32 34 34 34 33 32 33
21 19 15 13 11 11 10 10 11 14 17 20 22 22 22 25 28 31 34 36 36 36 38 36 38 37 39
20 20 18 14 16 16 15 17 20 21 22 25 29 33 32 33 36 38 38 41 47 45 45 42 42 43 45
19 18 18 18 20 21 24 26 27 29 31 34 37 38 38 41 42 47 47 47 47 52 54 53 50 51 54
18 18 20 23 27 26 28 31 33 36 38 42 45 46 47 50 49 53 55 55 56 55 59 61 61 58 56
21 23 23 26 27 27 29 31 34 39 42 48 53 55 59 62 60 59 59 56 58 62 63 65 66 63 56
30 28 26 25 27 31 35 40 44 45 49 54 58 55 55 57 56 54 55 58 58 61 68 66 63 63 61
40 39 40 40 41 43 44 45 46 48 50 52 57 59 54 53 52 49 50 57 59 55 60 62 43 51 57
44 43 44 44 43 47 44 47 48 50 52 53 52 50 48 47 48 47 49 55 61 53 50 49 28 27 46
30 31 31 33 34 35 41 45 44 41 40 40 42 44 44 44 45 45 45 46 51 57 55 54 53 56 54
Wind_Direction_850mb
162 156 149 141 134 120 110 100 89 79 70 57 44 38 37 31 22 14 2 354 349 344 338 332 329 329 329
161 156 147 145 136 127 107 92 81 69 52 20 352 344 343 340 332 324 321 321 321 320 317 317 316 322 325
153 150 144 139 143 139 127 107 70 42 14 0 345 328 326 323 316 310 309 310 312 312 310 319 305 306 315
171 165 161 158 157 157 151 113 79 62 39 26 22 21 9 348 338 324 315 311 303 305 314 317 317 314 314
188 183 180 180 168 163 163 149 104 46 37 27 19 15 15 13 13 7 355 345 339 324 315 318 309 306 304
197 198 191 198 203 188 170 165 9 347 3 9 9 6 1 358 359 355 351 348 340 339 327 322 318 315 312
200 203 206 204 202 204 216 244 295 319 333 337 339 339 338 334 338 335 334 334 331 329 318 308 305 305 302
205 206 213 223 222 236 253 277 289 301 308 313 315 316 320 319 320 319 316 318 320 317 316 308 301 299 299
210 216 226 242 258 264 274 279 286 292 296 299 303 307 311 311 308 307 309 310 310 310 310 306 301 300 301
223 237 252 262 271 279 285 285 288 293 298 299 300 302 305 302 300 300 302 302 305 307 307 306 300 295 294
251 263 268 275 277 284 287 293 299 300 302 301 300 301 301 298 296 296 297 301 304 305 306 304 301 296 293
258 262 268 272 282 294 304 307 308 304 306 302 298 301 301 298 299 301 298 298 302 305 303 300 301 299 301
256 260 271 284 292 296 296 298 300 297 295 293 294 298 303 303 303 305 304 303 301 302 302 301 299 294 293
257 259 264 273 281 286 291 293 296 297 297 297 294 293 296 298 300 301 301 301 301 301 300 303 305 297 295
254 258 265 274 280 284 286 289 289 291 290 290 290 291 292 293 294 296 298 299 301 300 301 296 293 288 298
260 263 267 273 280 288 295 297 298 299 299 299 297 296 294 292 293 292 292 294 300 304 303 297 294 292 287